Location: Unspecified
(0.0000°N, 0.0000°E)
Time: 06:08:23
(UTC+00:00)

N. Korean satellite - Pass Details

Date: 16 June 2019
Orbit: 455 x 508 km, 97.2° (Epoch: 15 September)

Event Time Altitude Azimuth Distance (km) Brightness Sun altitude
Rises 04:54:51 0° 42° (NE) 2,488 11.4 -15.1°
Reaches altitude 10° 04:57:37 10° 67° (ENE) 1,627 10.7 -14.4°
Maximum altitude 04:59:35 14° 102° (ESE) 1,386 9.7 -14.0°
Drops below altitude 10° 05:01:34 10° 136° (SE) 1,649 9.5 -13.5°
Sets 05:04:23 0° 161° (SSE) 2,545 10.2 -12.9°
